Regional Weather Roundup
Issued by NWS

Home | Current Version | Previous Version | Text Only | Print | Product List | Glossary On
Versions: 1 2 3 4 5 6 7 8 9 10 11 12 13 14 15 16 17 18 19 20 21 22 23 24 25 26 27 28 29 30 31 32 33 34 35 36 37 38 39 40 41 42 43 44 45 46 47 48 49 50
000
ASUS44 KBMX 201510
RWRAL

ALABAMA REGIONAL WEATHER ROUNDUP
NATIONAL WEATHER SERVICE BIRMINGHAM AL
1000 AM CDT FRI APR 20 2018

NOTE: "FAIR" INDICATES FEW OR NO CLOUDS BELOW 12,000 FEET
WITH NO SIGNIFICANT WEATHER AND/OR OBSTRUCTIONS TO VISIBILITY.

THE REMARK "TC" DENOTES TEMPERATURE IN DEGREES CELSIUS.

ALZ001>011-014-016>018-020-201600-
NORTH ALABAMA

CITY           SKY/WX    TMP DP  RH WIND       PRES   REMARKS
MUSCLE SHOALS  FAIR      54  32  43 E14G21    30.39S
HUNTSVILLE     FAIR      56  35  45 NE8       30.37S
DECATUR        FAIR      54  33  45 E8        30.38S
HALEYVILLE     FAIR      54  34  46 VRB7G16   30.38R
GADSDEN        FAIR      55  36  48 NE13      30.36S
$$

ALZ012-013-022-023-030>036-040>044-201600-
WEST CENTRAL ALABAMA

CITY           SKY/WX    TMP DP  RH WIND       PRES   REMARKS
TUSCALOOSA     FAIR      56  36  47 NE9       30.34R
DEMOPOLIS      FAIR      55  36  49 NE7       30.31F
$$

ALZ015-024>026-033>036-041>044-201600-
CENTRAL ALABAMA

CITY           SKY/WX    TMP DP  RH WIND       PRES   REMARKS
BIRMINGHAM     FAIR      56  32  40 NE12      30.35S
MONTGOMERY     FAIR      59  35  40 E15       30.29S
SHELBY CO ARPT FAIR      55  35  47 E9        30.32R
MAXWELL AFB    FAIR      57  32  39 E12       30.28R
GREENVILLE     FAIR      59  36  42 E13G21    30.26S
SELMA          FAIR      57  34  41 E13G18    30.30R
PRATTVILLE     FAIR      58  33  40 E8        30.29S
BESSEMER       FAIR      54  30  40 E10G20    30.33R
TALLADEGA      FAIR      56  32  40 E6        30.34F
PELL CITY      SUNNY     55  36  47 NE8       30.34F
MARION         FAIR      56  34  43 E7        30.30R
SYLACAUGA      FAIR      57  33  40 E12       30.32S
$$

ALZ019-021-028-029-037-038-045>048-201600-
EAST CENTRAL ALABAMA

CITY           SKY/WX    TMP DP  RH WIND       PRES   REMARKS
ANNISTON       FAIR      55  32  41 E13G20    30.34S
ALEXANDER CITY FAIR      55  38  51 E9        30.31R
AUBURN         FAIR      56  31  38 NE14      30.31R
$$

ALZ051>064-201600-
SOUTHWEST ALABAMA

CITY           SKY/WX    TMP DP  RH WIND       PRES   REMARKS
MOBILE         PTSUNNY   58  38  47 NE9       30.25F
BROOKLEY FIELD FAIR      58  41  53 N12       30.26S
EVERGREEN      FAIR      58  39  49 NE10      30.26S
$$

ALZ049-050-065>069-201600-
SOUTHEAST ALABAMA

CITY           SKY/WX    TMP DP  RH WIND       PRES   REMARKS
DOTHAN         FAIR      61  37  41 E13       30.27R
OZARK          FAIR      61  40  46 E10G20    30.23S
TROY           FAIR      59  38  45 E9        30.27R
EUFAULA        FAIR      62  38  40 NE13      30.27R
$$



USA.gov is the U.S. government's official web portal to all federal, state and local government web resources and services.